sat.trackr.live / text

‹ back to catalog

STARLINK-35982

NORAD 66828 · 2025-280H

PAYLOAD ACTIVE UNKNOWN

§ Identity

Operator
Country
US
Launch date
2025-12-02
Launch site
AFWTR
Launch vehicle
Mass (kg)
RCS (m²)

Purposes: comms

External: N2YO · Heavens-Above · Gunter

§ Orbital elements

Epoch: 2026-05-25T03:12:34.373952Z

Period
96.11 min
Inclination
70.0006°
Eccentricity
0.0003902
Mean motion
14.98337935 rev/d
Perigee alt
569.3 km
Apogee alt
574.7 km
Semi-major
6,950.2 km
B*
3.1030e-4
RAAN
141.8286°
Arg perigee
265.3376°
Mean anomaly
94.7337°
Rev number
2,752

§ Raw data

STARLINK-359821 66828U 25280H   26145.13373118  .00003612  00000+0  31030-3 0  99932 66828  70.0006 141.8286 0003902 265.3376  94.7337 14.98337935 27522

JSON: /api/v1/satellites/66828 · /tle

For live sub-satellite position, see the globe view (requires WebGL).

§ Visibility from observer

Set your observer location to see the next 7 days of passes ≥ 10°. The values pass through the URL so the page stays shareable.

No JS? Fill the form by hand. The geolocation button needs JavaScript.